Find Starlink 6173

NORAD ID: 56385 Int'l Des: 2023-061 Owner: SPXS Country: US Constellation: starlink operational
LEOCIRCULAR

現在のビュー

3D地球を読み込み中...

About Starlink 6173

Starlink 6173 (NORAD 56385) is a starlink constellation satellite (v1.5) launched May 4, 2023 by SPXS of US. It operates in LEO, CIRCULAR orbit with a mass of 305.00 kg.

Starlink 6173について

説明を読み込み中...

次回通過

Passes for default location (London). Set your location on the main map for personalized predictions.

高度履歴

Loading altitude history...

軌道要素

1 56385U 23061M 26171.44290911 .00000213 00000-0 17267-4 0 9999
2 56385 43.0032 337.6710 0001265 264.0833 95.9875 15.27576072172463
Epoch: Jun 20, 2026 • Age: 29 hours

現在のステータス

高度 486.9 km
速度 7.63 km/s
衛星直下点 42.31°N, 91.19°W
打ち上げ日 May 4, 2023
運用期間 3.1 years
タイプ internet

技術仕様

分類 Payload
質量 305.00 kg
乾燥質量 290.00 kg
総質量 305.00 kg
長さ 0.20 m
直径 2.80 m
スパン 9.00 m
形状 Box + pan
製造者 SPXS
バスタイプ Starlink
フェーズステータス In Orbit
所有者/国 SPXS/US

Most Searched